Find Raduga

NORAD ID: 14725 Int'l Des: 1984-016 Owner: GUKOS Country: SU operational
HEOCIRCULARGSO

Aktuelle Ansicht

3D-Globus wird geladen...

Über Raduga

Beschreibung wird geladen...

Nächste Überflüge

Passes for default location (London). Set your location on the main map for personalized predictions.

Höhenverlauf

Loading altitude history...

Zweizeiliger Elementsatz

1 14725U 84016A 26149.52059470 -.00000137 00000-0 00000-0 0 9994
2 14725 8.6065 310.9550 0001855 150.3196 52.2862 1.00297508117919
Epoch: 29. Mai 2026 • Age: 16 hours

Aktueller Status

Höhe 35774.4 km
Geschwindigkeit 3.08 km/s
Subsatellitenpunkt 8.63°N, 79.11°E
Startdatum 15. Feb. 1984
Alter 42.2 years
Typ other

Technische Details

Klassifizierung Payload
Masse 1965.00 kg
Trockenmasse 1800.00 kg
Gesamtmasse 1965.00 kg
Länge 5.50 m
Durchmesser 2.50 m
Spannweite 9.50 m
Form Step Cyl + 2 Pan
Hersteller NPOPM
Bus-Typ Raduga
Phasenstatus In Orbit
Besitzer/Staat GUKOS/SU

Most Searched